When you browse on this site, cookies collect data to enhance your experience and personalize the content and advertising you see.
Visit our Privacy Policy to learn more. By continuing to use the site, you agree to this use of cookies and data.
  • In Latvia
  • List of Countries
  • For 7 days
  • Water Temperature
  • Satellite Maps
  • Weather Map
  • Weather Widgets
  • user-avatar
    Login

    Hourly Weather Princeton

    Today, 24 July, Wednesday

    Time Temperature Precipitation Wind Pressure Humidity
    00:00 +21°C° 1 mm 2 mps 754 mmHg 88%
    01:00 +21°C° 1 mm 2 mps 754 mmHg 89%
    02:00 +21°C° 0.3 mm 2 mps 754 mmHg 87%
    03:00 +21°C° 0.3 mm 2 mps 754 mmHg 86%
    04:00 +21°C° 0.3 mm 2 mps 754 mmHg 85%
    05:00 +21°C° 0 mm 2 mps 754 mmHg 83%
    06:00 +23°C° 0 mm 2 mps 755 mmHg 81%
    07:00 +23°C° 0 mm 2 mps 756 mmHg 79%
    08:00 +25°C° 0 mm 2 mps 756 mmHg 71%
    09:00 +26°C° 0 mm 2 mps 756 mmHg 64%
    10:00 +27°C° 0 mm 2 mps 756 mmHg 57%
    11:00 +28°C° 0 mm 2 mps 756 mmHg 52%
    12:00 +29°C° 0 mm 2 mps 756 mmHg 48%
    13:00 +30°C° 0 mm 2 mps 756 mmHg 44%
    14:00 +30°C° 0 mm 2 mps 756 mmHg 46%
    15:00 +30°C° 0 mm 2 mps 756 mmHg 48%
    16:00 +29°C° 0 mm 2 mps 756 mmHg 50%
    17:00 +28°C° 0 mm 2 mps 756 mmHg 55%
    18:00 +27°C° 0 mm 2 mps 757 mmHg 60%
    19:00 +25°C° 0 mm 2 mps 757 mmHg 65%
    20:00 +24°C° 0.1 mm 2 mps 757 mmHg 67%
    21:00 +23°C° 0.1 mm 2 mps 758 mmHg 70%
    22:00 +21°C° 0.1 mm 2 mps 758 mmHg 73%
    23:00 +22°C° 0.2 mm 1 mps 758 mmHg 74%

    Tomorrow, 25 July, Thursday

    Time Temperature Precipitation Wind Pressure Humidity
    00:00 +22°C° 0.2 mm 1 mps 759 mmHg 75%
    01:00 +21°C° 0.2 mm 1 mps 759 mmHg 76%
    02:00 +21°C° 0 mm 1 mps 759 mmHg 77%
    03:00 +21°C° 0 mm 1 mps 759 mmHg 78%
    04:00 +21°C° 0 mm 1 mps 759 mmHg 79%
    05:00 +21°C° 0 mm 1 mps 760 mmHg 78%
    06:00 +22°C° 0 mm 1 mps 760 mmHg 76%
    07:00 +23°C° 0 mm 1 mps 761 mmHg 74%
    08:00 +25°C° 0 mm 1 mps 761 mmHg 68%
    09:00 +26°C° 0 mm 1 mps 761 mmHg 61%
    10:00 +28°C° 0 mm 2 mps 761 mmHg 54%
    11:00 +29°C° 0 mm 2 mps 761 mmHg 51%
    12:00 +30°C° 0 mm 2 mps 761 mmHg 47%
    13:00 +31°C° 0 mm 2 mps 761 mmHg 43%
    14:00 +31°C° 0 mm 2 mps 761 mmHg 44%
    15:00 +31°C° 0 mm 2 mps 760 mmHg 44%
    16:00 +31°C° 0 mm 2 mps 760 mmHg 45%
    17:00 +29°C° 0 mm 2 mps 761 mmHg 49%
    18:00 +28°C° 0 mm 2 mps 761 mmHg 53%
    19:00 +27°C° 0 mm 2 mps 762 mmHg 56%
    20:00 +26°C° 0 mm 2 mps 762 mmHg 61%
    21:00 +25°C° 0 mm 2 mps 762 mmHg 66%
    22:00 +24°C° 0 mm 2 mps 762 mmHg 71%
    23:00 +23°C° 0 mm 2 mps 762 mmHg 72%

    Day after tomorrow, 26 July, Friday

    Time Temperature Precipitation Wind Pressure Humidity
    00:00 +23°C° 0 mm 1 mps 762 mmHg 72%
    01:00 +23°C° 0 mm 1 mps 763 mmHg 72%
    02:00 +22°C° 0 mm 1 mps 763 mmHg 73%
    03:00 +22°C° 0 mm 1 mps 763 mmHg 74%
    04:00 +21°C° 0 mm 1 mps 763 mmHg 74%
    05:00 +22°C° 0 mm 1 mps 763 mmHg 71%
    06:00 +23°C° 0 mm 1 mps 764 mmHg 69%
    07:00 +24°C° 0 mm 1 mps 764 mmHg 66%
    08:00 +26°C° 0 mm 1 mps 764 mmHg 60%
    09:00 +28°C° 0 mm 1 mps 764 mmHg 54%
    10:00 +28°C° 0 mm 0 mps 764 mmHg 48%
    11:00 +31°C° 0 mm 1 mps 764 mmHg 45%
    12:00 +32°C° 0 mm 1 mps 764 mmHg 42%
    13:00 +33°C° 0 mm 1 mps 764 mmHg 40%
    14:00 +32°C° 0 mm 1 mps 764 mmHg 41%
    15:00 +32°C° 0 mm 2 mps 763 mmHg 41%
    16:00 +32°C° 0 mm 2 mps 763 mmHg 42%
    17:00 +31°C° 0 mm 2 mps 763 mmHg 48%
    18:00 +29°C° 0 mm 2 mps 763 mmHg 54%
    19:00 +28°C° 0 mm 3 mps 764 mmHg 61%
    20:00 +27°C° 0 mm 3 mps 764 mmHg 63%
    21:00 +26°C° 0 mm 3 mps 764 mmHg 65%
    22:00 +25°C° 0 mm 2 mps 764 mmHg 67%
    23:00 +24°C° 0 mm 2 mps 764 mmHg 68%

    27 July, Saturday

    Time Temperature Precipitation Wind Pressure Humidity
    00:00 +24°C° 0 mm 2 mps 764 mmHg 69%
    01:00 +24°C° 0 mm 2 mps 764 mmHg 70%
    02:00 +23°C° 0 mm 2 mps 764 mmHg 71%
    03:00 +23°C° 0 mm 1 mps 764 mmHg 72%
    04:00 +23°C° 0 mm 1 mps 764 mmHg 74%
    05:00 +24°C° 0 mm 1 mps 764 mmHg 72%
    06:00 +24°C° 0 mm 1 mps 764 mmHg 70%
    07:00 +25°C° 0 mm 1 mps 765 mmHg 68%
    08:00 +27°C° 0 mm 1 mps 765 mmHg 62%
    09:00 +29°C° 0 mm 1 mps 765 mmHg 56%
    10:00 +31°C° 0 mm 1 mps 764 mmHg 50%
    11:00 +32°C° 0 mm 1 mps 764 mmHg 46%
    12:00 +33°C° 0 mm 1 mps 764 mmHg 43%
    13:00 +35°C° 0 mm 2 mps 764 mmHg 39%
    14:00 +34°C° 0 mm 2 mps 763 mmHg 41%
    15:00 +34°C° 0 mm 2 mps 763 mmHg 43%
    16:00 +34°C° 0 mm 2 mps 763 mmHg 44%
    17:00 +31°C° 0 mm 2 mps 763 mmHg 49%
    18:00 +30°C° 0 mm 2 mps 763 mmHg 54%
    19:00 +28°C° 0 mm 2 mps 763 mmHg 59%
    20:00 +27°C° 0 mm 2 mps 763 mmHg 62%
    21:00 +27°C° 0 mm 2 mps 763 mmHg 64%
    22:00 +26°C° 0 mm 2 mps 763 mmHg 66%
    23:00 +26°C° 0 mm 2 mps 763 mmHg 68%

    28 July, Sunday

    Time Temperature Precipitation Wind Pressure Humidity
    00:00 +25°C° 0 mm 2 mps 763 mmHg 70%
    01:00 +25°C° 0 mm 2 mps 763 mmHg 72%
    02:00 +24°C° 0 mm 2 mps 763 mmHg 72%
    03:00 +24°C° 0 mm 2 mps 763 mmHg 73%
    04:00 +24°C° 0 mm 2 mps 763 mmHg 73%
    05:00 +24°C° 0 mm 2 mps 763 mmHg 71%
    06:00 +25°C° 0 mm 2 mps 763 mmHg 70%
    07:00 +26°C° 0 mm 2 mps 763 mmHg 69%
    08:00 +27°C° 0 mm 2 mps 763 mmHg 63%
    09:00 +29°C° 0 mm 2 mps 763 mmHg 57%
    10:00 +31°C° 0 mm 2 mps 762 mmHg 51%
    11:00 +33°C° 0 mm 3 mps 762 mmHg 49%
    12:00 +33°C° 0 mm 3 mps 762 mmHg 46%
    13:00 +34°C° 0 mm 3 mps 761 mmHg 43%
    14:00 +34°C° 0 mm 3 mps 761 mmHg 46%
    15:00 +33°C° 0 mm 3 mps 761 mmHg 48%
    16:00 +33°C° 0 mm 3 mps 761 mmHg 50%
    17:00 +31°C° 0 mm 3 mps 760 mmHg 53%
    18:00 +30°C° 0 mm 3 mps 760 mmHg 56%
    19:00 +28°C° 0 mm 3 mps 760 mmHg 59%
    20:00 +28°C° 0 mm 3 mps 760 mmHg 61%
    21:00 +27°C° 0 mm 3 mps 761 mmHg 63%
    22:00 +26°C° 0 mm 3 mps 761 mmHg 65%
    23:00 +26°C° 0 mm 3 mps 761 mmHg 65%

    29 July, Monday

    Time Temperature Precipitation Wind Pressure Humidity
    00:00 +25°C° 0 mm 3 mps 760 mmHg 65%
    01:00 +25°C° 0 mm 3 mps 760 mmHg 65%
    02:00 +24°C° 0 mm 2 mps 760 mmHg 67%
    03:00 +24°C° 0 mm 2 mps 760 mmHg 69%
    04:00 +24°C° 0 mm 2 mps 760 mmHg 71%
    05:00 +24°C° 0 mm 2 mps 760 mmHg 71%
    06:00 +25°C° 0 mm 2 mps 760 mmHg 71%
    07:00 +26°C° 0 mm 2 mps 760 mmHg 70%
    08:00 +28°C° 0 mm 2 mps 760 mmHg 64%
    09:00 +29°C° 0 mm 2 mps 760 mmHg 58%
    10:00 +31°C° 0 mm 2 mps 760 mmHg 52%
    11:00 +32°C° 0 mm 2 mps 760 mmHg 48%
    12:00 +34°C° 0 mm 2 mps 759 mmHg 45%
    13:00 +35°C° 0 mm 3 mps 759 mmHg 41%
    14:00 +34°C° 0 mm 2 mps 758 mmHg 44%
    15:00 +32°C° 0 mm 2 mps 758 mmHg 48%
    16:00 +32°C° 0 mm 2 mps 758 mmHg 51%
    17:00 +30°C° 0 mm 2 mps 758 mmHg 54%
    18:00 +29°C° 0 mm 2 mps 758 mmHg 56%
    19:00 +28°C° 0 mm 3 mps 757 mmHg 59%
    20:00 +27°C° 0 mm 3 mps 758 mmHg 63%
    21:00 +26°C° 0 mm 3 mps 758 mmHg 66%
    22:00 +25°C° 0 mm 3 mps 758 mmHg 69%
    23:00 +24°C° 0 mm 3 mps 758 mmHg 71%
    Show more